Le Puy, France

11:47 AM CET on February 22, 2017 (GMT +0100)
Le Puy

Weather History for LFHP - January, 2013

Change the Weather History Date:

Tuesday, January 29, 2013

  Actual Average Record
Temperature  
Mean Temperature 37 °F -  
Max Temperature 46 °F - - ()
Min Temperature 28 °F - - ()
Degree Days  
Heating Degree Days 28    
Moisture  
Dew Point 32 °F    
Average Humidity 86    
Maximum Humidity 100    
Minimum Humidity 65    
Precipitation  
Precipitation 0.00 in - - ()
Sea Level Pressure  
Sea Level Pressure 30.23 in    
Wind  
Wind Speed 2 mph ()    
Max Wind Speed 5 mph    
Max Gust Speed -    
Visibility 7.0 miles    
Events Rain    
T = Trace of Precipitation, MM = Missing Value Source: Averaged Metar Reports

Daily Weather History Graph

Daily Weather History Graph

Search for Another Location

Airport or City:

Trip Planner

Search our weather history database for the weather conditions in past years. The results will help you decide how hot, cold, wet, or windy it might be!

Date:

Astronomy

Jan. 29, 2013 Rise Set
Actual Time 8:08 AM CET 5:48 PM CET
Civil Twilight 7:36 AM CET 6:20 PM CET
Nautical Twilight 7:01 AM CET 6:55 PM CET
Astronomical Twilight 6:26 AM CET 7:30 PM CET
Moon 8:38 PM CET (1/29) 8:48 AM CET (1/29)
Length of Visible Light 10h 43m
Length of Day
9h 40m
Waning Gibbous, 95% of the Moon is Illuminated
Jan 29
Waning Gibbous
Feb 3
Last Quarter
Feb 10
New
Feb 17
First Quarter
Feb 25
Full

Hourly Weather History & Observations

Time (CET) Temp. Windchill Dew Point Humidity Pressure Visibility Wind Dir Wind Speed Gust Speed Precip Events Conditions
12:00 AM 30.2 °F - 28.4 °F 93% 30.21 in 6.2 mi Calm Calm - N/A   Overcast
12:30 AM 30.2 °F 26.7 °F 30.2 °F 100% 30.21 in 6.2 mi ENE 3.5 mph - N/A   Overcast
1:00 AM 30 °F - 29 °F 93%  in 12 mi NW 2.3 mph - -   Clear
1:00 AM 30.2 °F - 28.4 °F 93% 30.21 in 6.2 mi Variable 2.3 mph - N/A   Mostly Cloudy
1:30 AM 30.2 °F - 28.4 °F 93% 30.21 in 6.2 mi Calm Calm - N/A   Mostly Cloudy
2:00 AM 30.2 °F - 28.4 °F 93% 30.21 in 6.2 mi Calm Calm - N/A   Overcast
2:30 AM 30.2 °F - 30.2 °F 100% 30.21 in 6.2 mi Calm Calm - N/A   Overcast
3:00 AM 32.0 °F - 30.2 °F 93% 30.21 in 6.2 mi Calm Calm - N/A   Overcast
3:30 AM 32.0 °F - 30.2 °F 93% 30.24 in 6.2 mi Variable 1.2 mph - N/A   Overcast
4:00 AM 32.0 °F - 30.2 °F 93% 30.21 in 6.2 mi Calm Calm - N/A   Overcast
4:30 AM 32.0 °F - 30.2 °F 93% 30.21 in 6.2 mi Variable 2.3 mph - N/A   Mostly Cloudy
5:30 AM 32.0 °F - 30.2 °F 93% 30.21 in 6.2 mi Calm Calm - N/A   Partly Cloudy
6:00 AM 32.0 °F - 30.2 °F 93% 30.24 in 6.2 mi Variable 2.3 mph - N/A   Partly Cloudy
6:30 AM 30.2 °F - 28.4 °F 93% 30.21 in 6.2 mi Variable 1.2 mph - N/A   Partly Cloudy
7:00 AM 31 °F - 30 °F 94%  in 12 mi ENE 3.5 mph - -   Clear
7:00 AM 32.0 °F 28.7 °F 30.2 °F 93% 30.24 in 6.2 mi Variable 3.5 mph - N/A   Overcast
7:30 AM 32.0 °F - 32.0 °F 100% 30.24 in 6.2 mi West 2.3 mph - N/A   Mostly Cloudy
1:00 PM 44 °F - 36 °F 66%  in 12 mi SW 4.6 mph - - Rain Light Rain
1:30 PM 44.6 °F 43.1 °F 37.4 °F 76% 30.24 in 6.2 mi SSW 3.5 mph - N/A   Unknown
2:00 PM 44.6 °F 42.2 °F 37.4 °F 76% 30.21 in 6.2 mi SSW 4.6 mph - N/A Rain Light Rain
2:30 PM 44.6 °F 43.1 °F 37.4 °F 76% 30.21 in 6.2 mi SE 3.5 mph - N/A   Partly Cloudy
3:00 PM 44.6 °F - 35.6 °F 71% 30.21 in 6.2 mi Calm Calm - N/A   Overcast
3:30 PM 46.4 °F - 37.4 °F 71% 30.24 in 6.2 mi Calm Calm - N/A   Overcast
4:00 PM 46.4 °F 45.2 °F 35.6 °F 66% 30.24 in 6.2 mi South 3.5 mph - N/A   Scattered Clouds
7:00 PM 44 °F - 36 °F 65%  in 12 mi WSW 4.6 mph - -   Clear
10:00 PM 42.8 °F - 37.4 °F 81% 30.27 in 6.2 mi Calm Calm - N/A   Mostly Cloudy
10:30 PM 42.8 °F 41.1 °F 37.4 °F 81% 30.27 in 6.2 mi SW 3.5 mph - N/A   Mostly Cloudy
11:00 PM 42.8 °F 40.1 °F 37.4 °F 81% 30.27 in 6.2 mi West 4.6 mph - N/A   Mostly Cloudy